Westfield, MA

5:37 AM EST on December 15, 2017 (GMT -0500)
Barnes Municipal

Weather History for KBAF - February, 2014

Change the Weather History Date:

Sunday, February 23, 2014

  Actual Average Record
Temperature  
Mean Temperature 38 °F -  
Max Temperature 48 °F 36 °F 63 °F (2017)
Min Temperature 28 °F 18 °F 1 °F (1999)
Degree Days  
Heating Degree Days 27    
Moisture  
Dew Point 25 °F    
Average Humidity 61    
Maximum Humidity 79    
Minimum Humidity 39    
Precipitation  
Precipitation 0.00 in - - ()
Sea Level Pressure  
Sea Level Pressure 29.92 in    
Wind  
Wind Speed 4 mph (SSW)    
Max Wind Speed 8 mph    
Max Gust Speed -    
Visibility 10 miles    
Events      
Averages and records for this station are not official NWS values.
T = Trace of Precipitation, MM = Missing Value Source: NWS Daily Summary

Daily Weather History Graph

Daily Weather History Graph

Search for Another Location

Airport or City:

Trip Planner

Search our weather history database for the weather conditions in past years. The results will help you decide how hot, cold, wet, or windy it might be!

Date:

Astronomy

Feb. 23, 2014 Rise Set
Actual Time 6:35 AM EST 5:33 PM EST
Civil Twilight 6:07 AM EST 6:01 PM EST
Nautical Twilight 5:34 AM EST 6:34 PM EST
Astronomical Twilight 5:02 AM EST 7:06 PM EST
Moon 1:33 AM EST (2/23) 11:30 AM EST (2/23)
Length of Visible Light 11h 54m
Length of Day
10h 58m
Last Quarter, 39% of the Moon is Illuminated
Feb 23
Last Quarter
Mar 1
New
Mar 8
First Quarter
Mar 16
Full
Mar 23
Last Quarter

Hourly Weather History & Observations

Time (EST) Temp. Windchill Dew Point Humidity Pressure Visibility Wind Dir Wind Speed Gust Speed Precip Events Conditions
12:53 AM 36.0 °F 29.6 °F 21.0 °F 55% 29.99 in 10.0 mi South 8.1 mph - N/A   Mostly Cloudy
1:53 AM 36.0 °F 31.1 °F 21.9 °F 57% 30.00 in 10.0 mi SSW 5.8 mph - N/A   Overcast
2:53 AM 33.1 °F - 21.9 °F 64% 29.99 in 10.0 mi Calm Calm - N/A   Overcast
3:53 AM 28.9 °F 22.8 °F 21.9 °F 75% 29.97 in 10.0 mi South 5.8 mph - N/A   Partly Cloudy
4:53 AM 35.1 °F 31.0 °F 23.0 °F 61% 29.98 in 10.0 mi South 4.6 mph - N/A   Overcast
5:53 AM 30.9 °F - 24.1 °F 76% 29.99 in 10.0 mi Calm Calm - N/A   Clear
6:53 AM 28.9 °F - 23.0 °F 78% 30.00 in 10.0 mi Calm Calm - N/A   Clear
7:53 AM 32.0 °F - 24.1 °F 73% 29.99 in 10.0 mi Calm Calm - N/A   Clear
8:53 AM 34.0 °F - 24.1 °F 67% 30.00 in 10.0 mi Calm Calm - N/A   Partly Cloudy
9:53 AM 37.9 °F - 23.0 °F 55% 29.98 in 10.0 mi Calm Calm - N/A   Overcast
10:53 AM 37.9 °F 34.4 °F 27.0 °F 65% 29.97 in 10.0 mi South 4.6 mph - N/A   Mostly Cloudy
11:53 AM 42.1 °F - 26.1 °F 53% 29.95 in 10.0 mi Calm Calm - N/A   Mostly Cloudy
12:53 PM 46.0 °F 44.8 °F 23.0 °F 40% 29.91 in 10.0 mi SSW 3.5 mph - N/A   Clear
1:53 PM 46.9 °F - 24.1 °F 41% 29.89 in 10.0 mi South 4.6 mph - N/A   Mostly Cloudy
2:53 PM 48.0 °F - 24.1 °F 39% 29.87 in 10.0 mi South 4.6 mph - N/A   Overcast
3:53 PM 48.9 °F - 25.0 °F 39% 29.86 in 10.0 mi SE 3.5 mph - N/A   Overcast
4:53 PM 48.0 °F - 26.1 °F 42% 29.83 in 10.0 mi SSE 5.8 mph - N/A   Overcast
5:53 PM 43.0 °F 39.5 °F 27.0 °F 53% 29.85 in 10.0 mi WSW 5.8 mph - N/A   Mostly Cloudy
6:53 PM 37.0 °F 34.5 °F 27.0 °F 67% 29.85 in 10.0 mi SW 3.5 mph - N/A   Clear
7:53 PM 36.0 °F 33.3 °F 28.0 °F 73% 29.84 in 10.0 mi West 3.5 mph - N/A   Mostly Cloudy
8:53 PM 36.0 °F 32.1 °F 27.0 °F 70% 29.83 in 10.0 mi SSW 4.6 mph - N/A   Overcast
9:53 PM 35.1 °F - 28.9 °F 78% 29.82 in 10.0 mi Calm Calm - N/A   Mostly Cloudy
10:53 PM 36.0 °F - 27.0 °F 70% 29.81 in 10.0 mi Calm Calm - N/A   Overcast
11:53 PM 34.0 °F 31.0 °F 28.0 °F 79% 29.80 in 10.0 mi NW 3.5 mph - N/A   Overcast